Regional Weather Roundup
Issued by NWS

Home | Current Version | Previous Version | Graphics & Text | Print | Product List | Glossary On
Versions: 1 2 3 4 5 6 7 8 9 10 11 12 13 14 15 16 17 18 19 20 21 22 23 24 25 26 27 28 29 30 31 32 33 34 35 36 37 38 39 40 41 42 43 44 45 46 47 48 49 50
704
ASUS45 KBOU 251807
RWRCO

WEATHER ROUNDUP FOR COLORADO
NATIONAL WEATHER SERVICE DENVER/BOULDER CO
1200 PM MDT SUN JUN 25 2017

NOTE: "FAIR" INDICATES FEW OR NO CLOUDS BELOW 12000 FEET WITH NO
SIGNIFICANT WEATHER AND/OR OBSTRUCTIONS TO VISIBILITY.

COZ001>005-013-030-031-251900-
...NORTHWEST COLORADO...

CITY           SKY/WX    TMP DP  RH WIND       PRES   REMARKS
CRAIG          FAIR      78  30  17 VRB7      30.34F
HAYDEN         FAIR      73  37  27 W6        30.36S
MEEKER         FAIR      77  30  17 VRB5      30.33F
RABBIT EARS PA FAIR      59  32  36 CALM      30.62S
STEAMBOAT SPGS FAIR      72  36  26 W6        30.37S
WALDEN         FAIR      70  32  24 E3        30.45F
$$

COZ006>008-011-251900-
...WEST CENTRAL VALLEYS...

CITY           SKY/WX    TMP DP  RH WIND       PRES   REMARKS
GRAND JUNCTION FAIR      85  30  13 VRB6      30.19F
MONTROSE       FAIR      81  36  19 NW6       30.26F
EAGLE          SUNNY     75  28  17 CALM      30.35F
RIFLE          FAIR      83  29  14 N5        30.25F
DELTA          FAIR      84  29  13 SW5       30.23F
NUCLA          FAIR      84  23  10 N6        30.30F
$$

COZ017>023-064>068-251900-
...SOUTHWEST COLORADO...

CITY           SKY/WX    TMP DP  RH WIND       PRES   REMARKS
DURANGO        FAIR      78  41  26 VRB6      30.34F
CORTEZ         FAIR      86  39  19 VRB5      30.26F
PAGOSA SPRINGS FAIR      74  39  27 CALM      30.42F
TELLURIDE      FAIR      75  20  12 N6        30.51S
WOLF CREEK PAS FAIR      55  36  47 SW13      30.75S
$$

COZ009-010-012-014-032>034-037-058>063-251900-
...CENTRAL COLORADO...

CITY           SKY/WX    TMP DP  RH WIND       PRES   REMARKS
ASPEN          FAIR      75  27  17 NW13      30.39F
BUENA VISTA    FAIR      73  32  22 NE3       30.40F
COPPER MTN     FAIR      59  12  15 NW15G25   30.69S
BERTHOUD PASS  FAIR      46  34  61 NE3       30.72S
COTTONWOOD PAS FAIR      70  34  26 E6        30.54F
GUNNISON       FAIR      73  29  19 W3        30.40F
KREMMLING      NOT AVBL
LEADVILLE      FAIR      67  16  14 N9G22     30.52F
MONARCH PASS   FAIR      57  23  26 W23G30    30.80S
SALIDA         FAIR      76  44  31 NE6       30.44F
SUNLIGHT       FAIR      59  27  29 SW6       30.66S
WILKERSON PASS FAIR      59  30  33 CALM      30.67F
$$

COZ069>075-251900-
...SAN LUIS VALLEY/SANGRE DE CRISTO MOUNTAINS...

CITY           SKY/WX    TMP DP  RH WIND       PRES   REMARKS
ALAMOSA        FAIR      72  48  42 VRB6      30.39F
DEL NORTE      FAIR      71  47  43 E10       30.42F
LA VETA PASS   PTSUNNY   63  43  48 MISG      30.70S
SAGUACHE       FAIR      72  43  35 S8        30.42F
$$

COZ035-036-038>040-251900-
...NORTHERN COLORADO FRONT RANGE...

CITY           SKY/WX    TMP DP  RH WIND       PRES   REMARKS
DENVER INTL AP CLOUDY    63  50  62 N8        30.37F
DMNS CITY PARK   N/A     63  50  62 NE8G18    30.38S
AURORA         PTSUNNY   64  51  62 NE8       30.38S
FRONT RANGE AP PTSUNNY   68  52  56 N7G18     30.38S
ERIE MUNI ARPT CLOUDY    64  51  62 N5        30.38S
BOULDER MUN AP CLOUDY    61  50  67 N3        30.38S
CENTENNIAL     FAIR      65  50  58 CALM      30.38S
BROOMFIELD     CLOUDY    63  50  63 N7        30.39F
FORT COLLINS   CLOUDY    65  50  58 E8        30.38S
LONGMONT       CLOUDY    67  50  54 NE8       30.38F
$$

COZ041-046-047-076>085-087-088-251900-
...PIKES PEAK/PALMER DIVIDE AND SOUTHERN FOOTHILLS...

CITY           SKY/WX    TMP DP  RH WIND       PRES   REMARKS
COLO. SPRINGS  PTSUNNY   71  51  49 SW7       30.36F
A. F. ACADEMY  FAIR      73  50  44 SE6       30.36F
SCHRIEVER AFB  FAIR      72  49  43 SE8       30.36F
CHEYENNE MTN   PTSUNNY   70  52  52 E8        30.35S
ELLICOTT       PTSUNNY  N/A N/A N/A SE8       30.34F
FALCON           N/A     72  45  38 SE6       30.40F
FORT CARSON    PTSUNNY   73  52  47 SE7       30.32F
LIMON          FAIR      73  53  49 E15G23    30.33F
MONUMENT HILL  FAIR      64  48  55 NE5       30.42F
CANON CITY     SUNNY     79  54  41 E7        30.29F
WALSENBURG     FAIR      77  52  41 SE3       30.33F
TRINIDAD       PTSUNNY   75  53  46 CALM      30.31F
$$

COZ042>045-048>051-090-091-251900-
...NORTHEAST COLORADO...

CITY           SKY/WX    TMP DP  RH WIND       PRES   REMARKS
GREELEY ARPT   CLOUDY    61  51  70 E8        30.37F
AKRON          CLOUDY    58  51  78 E16       30.36F
BURLINGTON     FAIR      68  54  60 E14       30.34F
WRAY           CLOUDY    61  52  72 SE13      30.36F
YUMA           CLOUDY    54  52  94 E10       30.36F
STERLING       CLOUDY    63  50  63 SE12      30.35F
HOLYOKE        NOT AVBL
FORT MORGAN    CLOUDY    62  51  68 E13G18    30.37F
$$

COZ086-089-092>099-251900-
...SOUTHEAST COLORADO...

CITY           SKY/WX    TMP DP  RH WIND       PRES   REMARKS
PUEBLO         FAIR      78  54  43 E3        30.26F
LA JUNTA       PTSUNNY   80  58  46 E7        30.25F
LAMAR          CLOUDY    80  57  45 E7        30.22F
SPRINGFIELD      N/A     72  61  68 S17G25    30.28F
$$




USA.gov is the U.S. government's official web portal to all federal, state and local government web resources and services.